Regional Weather Roundup
Issued by NWS

Home | Current Version | Previous Version | Graphics & Text | Print | Product List | Glossary On
Versions: 1 2 3 4 5 6 7 8 9 10 11 12 13 14 15 16 17 18 19 20 21 22 23 24 25 26 27 28 29 30 31 32 33 34 35 36 37 38 39 40 41 42 43 44 45 46 47 48 49 50
000
ASUS43 KLSX 060607
RWRMO

WEATHER SUMMARY FOR MISSOURI
NATIONAL WEATHER SERVICE SPRINGFIELD MO
1200 AM CST SAT FEB 06 2016

NOTE: "FAIR" INDICATES FEW OR NO CLOUDS BELOW 12,000 FEET WITH NO
       SIGNIFICANT WEATHER AND/OR OBSTRUCTIONS TO VISIBILITY.
       CURRENT SKY AND/OR WEATHER CONDITIONS ARE NOT AVAILABLE FOR
       CHILLICOTHE AND FARMINGTON.

MOZ001>031-035>038-043-044-053-054-060700-
...NORTHERN AND WESTERN MISSOURI...

CITY           SKY/WX    TMP DP  RH WIND       PRES   REMARKS
KANSAS CTY INT CLOUDY    34  24  67 CALM      30.26F
6HR MIN TEMP:  33; 6HR MAX TEMP:  40;

KANSAS C DTWN  CLOUDY    35  25  66 CALM      30.27F
6HR MIN TEMP:  34; 6HR MAX TEMP:  43;

LEE`S SUMMIT   CLOUDY    35  25  66 S3        30.27S
6HR MIN TEMP:  33; 6HR MAX TEMP:  41;

ST JOSEPH      PTCLDY    26  23  88 CALM      30.28R
6HR MIN TEMP:  26; 6HR MAX TEMP:  38;

CHILLICOTHE      N/A     31  23  72 CALM      30.29F
6HR MIN TEMP:  28; 6HR MAX TEMP:  36;

KIRKSVILLE     CLOUDY    30  20  66 S6        30.28F WCI  24
6HR MIN TEMP:  28; 6HR MAX TEMP:  31;


$$
MOZ066>068-077>081-088>096-101>105-060700-
...SOUTHWEST MISSOURI...

CITY           SKY/WX    TMP DP  RH WIND       PRES   REMARKS
SPRINGFIELD    CLOUDY    36  19  50 CALM      30.28S
6HR MIN TEMP:  31; 6HR MAX TEMP:  44;

JOPLIN         CLOUDY    42  17  36 S10       30.29S
6HR MIN TEMP:  40; 6HR MAX TEMP:  47;


$$
MOZ032>034-039>042-045>050-055>058-069>072-060700-
...CENTRAL MISSOURI...

CITY           SKY/WX    TMP DP  RH WIND       PRES   REMARKS
COLUMBIA       CLOUDY    33  17  51 E7        30.29S WCI  27
6HR MIN TEMP:  32; 6HR MAX TEMP:  39;

JEFFERSON CITY CLOUDY    31  21  66 CALM      30.31S
6HR MIN TEMP:  29; 6HR MAX TEMP:  40;

ROLLA          CLEAR     34  18  52 SE10      30.27F WCI  26
6HR MIN TEMP:  31; 6HR MAX TEMP:  37;

SEDALIA        PTCLDY    34  21  59 SE6       30.29F WCI  29
6HR MIN TEMP:  33; 6HR MAX TEMP:  41;

WHITEMAN AFB   MOCLDY    33  23  65 S2        30.27S
WARRENSBURG    MOCLDY    34  25  69 S5        30.28S WCI  30
OSAGE BEACH    CLEAR     32  18  55 SE6       30.29F WCI  26

$$
MOZ051-052-059>065-060700-
...EAST CENTRAL MISSOURI...

CITY           SKY/WX    TMP DP  RH WIND       PRES   REMARKS
ST LOUIS INTL  CLOUDY    32  19  58 CALM      30.33S
6HR MIN TEMP:  29; 6HR MAX TEMP:  38;

SPIRIT OF STL  CLOUDY    27  22  81 CALM      30.32F
6HR MIN TEMP:  26; 6HR MAX TEMP:  34;

ST CHARLES     CLOUDY    26  23  88 NE3       30.33F
6HR MIN TEMP:  26; 6HR MAX TEMP:  35;


$$
MOZ072>076-082>087-097>100-106>115-060700-
...SOUTH CENTRAL AND SOUTHEAST MISSOURI...

CITY           SKY/WX    TMP DP  RH WIND       PRES   REMARKS
CAPE GIRARDEAU PTCLDY    29  24  82 SE3       30.34F
6HR MIN TEMP:  26; 6HR MAX TEMP:  40;

FARMINGTON     CLEAR     26  21  81 CALM      30.31F
6HR MIN TEMP:  25; 6HR MAX TEMP:  37;

POPLAR BLUFF   CLEAR     35  24  64 S5        30.34S
6HR MIN TEMP:  31; 6HR MAX TEMP:  45;

WEST PLAINS    CLEAR     36  14  40 SW7       30.31S
6HR MIN TEMP:  32; 6HR MAX TEMP:  42;


$$


USA.gov is the U.S. government's official web portal to all federal, state and local government web resources and services.